| time (UTC) | temp F | wind direction | speed MPH | gust MPH | rain 1hr in | rain 24hr in | rain mn in | humidity % | barometer mb |
| 20260904004515 | 69 | 0.0 | 0.0 | 0.00 | 0.14 | 0.14 | 92 | 1013.0 | |
| 20260904003515 | 69 | 0.0 | 0.0 | 0.00 | 0.14 | 0.14 | 92 | 1012.8 | |
| 20260904002515 | 69 | 0.0 | 3.0 | 0.00 | 0.14 | 0.14 | 92 | 1013.0 | |
| 20260904001535 | 70 | 0.0 | 0.0 | 0.00 | 0.14 | 0.14 | 92 | 1013.2 | |
| 20260904000607 | 70 | 0.0 | 0.0 | 0.00 | 0.14 | 0.14 | 92 | 1013.1 | |
| 20260903235536 | 70 | 68 | 1.0 | 4.0 | 0.00 | 0.14 | 0.14 | 92 | 1013.5 |
| 20260903234535 | 70 | 45 | 1.0 | 4.0 | 0.02 | 0.14 | 0.14 | 92 | 1013.7 |
| 20260903233535 | 70 | 23 | 3.0 | 6.0 | 0.02 | 0.14 | 0.14 | 92 | 1013.8 |
| 20260903232515 | 70 | 23 | 5.0 | 9.0 | 0.02 | 0.14 | 0.14 | 91 | 1014.0 |
| 20260903231515 | 70 | 23 | 5.0 | 10.0 | 0.02 | 0.14 | 0.14 | 90 | 1013.8 |
| 20260903230515 | 70 | 338 | 4.0 | 9.0 | 0.02 | 0.14 | 0.14 | 89 | 1014.2 |
| 20260903225535 | 71 | 338 | 6.0 | 15.0 | 0.02 | 0.14 | 0.14 | 88 | 1014.4 |
| 20260903224516 | 73 | 0 | 10.0 | 20.0 | 0.00 | 0.12 | 0.12 | 82 | 1014.2 |
| 20260903223515 | 78 | 338 | 12.0 | 24.0 | 0.00 | 0.12 | 0.12 | 73 | 1015.0 |
| 20260903222515 | 85 | 315 | 1.0 | 3.0 | 0.00 | 0.12 | 0.12 | 69 | 1012.6 |
| 20260903221515 | 85 | 315 | 1.0 | 2.0 | 0.00 | 0.12 | 0.12 | 69 | 1012.0 |
| 20260903220515 | 86 | 0.0 | 2.0 | 0.00 | 0.12 | 0.12 | 68 | 1011.6 | |
| 20260903215515 | 87 | 248 | 2.0 | 3.0 | 0.00 | 0.12 | 0.12 | 67 | 1011.3 |
| 20260903214515 | 88 | 270 | 1.0 | 2.0 | 0.00 | 0.12 | 0.12 | 65 | 1011.5 |
| 20260903213515 | 88 | 270 | 2.0 | 5.0 | 0.00 | 0.12 | 0.12 | 63 | 1011.9 |
| 20260903212516 | 89 | 248 | 5.0 | 8.0 | 0.00 | 0.12 | 0.12 | 62 | 1011.6 |
| 20260903211535 | 90 | 248 | 6.0 | 10.0 | 0.00 | 0.12 | 0.12 | 61 | 1011.4 |
| 20260903210535 | 90 | 248 | 9.0 | 14.0 | 0.00 | 0.12 | 0.12 | 59 | 1011.1 |
| 20260903205516 | 91 | 248 | 9.0 | 13.0 | 0.00 | 0.12 | 0.12 | 58 | 1010.8 |
| 20260903204515 | 92 | 248 | 10.0 | 14.0 | 0.00 | 0.12 | 0.12 | 57 | 1010.8 |
| 20260903203535 | 92 | 225 | 9.0 | 14.0 | 0.00 | 0.12 | 0.12 | 55 | 1010.5 |
| 20260903202515 | 93 | 225 | 13.0 | 19.0 | 0.00 | 0.12 | 0.12 | 53 | 1010.7 |
| 20260903201515 | 93 | 248 | 9.0 | 13.0 | 0.00 | 0.12 | 0.12 | 54 | 1010.6 |
| 20260903200515 | 93 | 248 | 10.0 | 15.0 | 0.00 | 0.12 | 0.12 | 53 | 1010.7 |
| 20260903195535 | 93 | 248 | 9.0 | 16.0 | 0.00 | 0.12 | 0.12 | 52 | 1010.9 |
| 20260903194556 | 93 | 225 | 10.0 | 14.0 | 0.00 | 0.12 | 0.12 | 54 | 1011.1 |
| 20260903193515 | 91 | 248 | 8.0 | 13.0 | 0.00 | 0.12 | 0.12 | 56 | 1011.3 |
| 20260903192516 | 91 | 248 | 7.0 | 13.0 | 0.00 | 0.12 | 0.12 | 56 | 1011.5 |
| 20260903191515 | 92 | 248 | 9.0 | 15.0 | 0.00 | 0.12 | 0.12 | 53 | 1011.8 |
| 20260903190515 | 94 | 248 | 10.0 | 18.0 | 0.00 | 0.12 | 0.12 | 52 | 1012.2 |
| 20260903185515 | 93 | 248 | 6.0 | 11.0 | 0.00 | 0.12 | 0.12 | 53 | 1012.1 |
| 20260903184535 | 93 | 248 | 5.0 | 10.0 | 0.00 | 0.12 | 0.12 | 54 | 1012.2 |
| 20260903183516 | 93 | 270 | 6.0 | 13.0 | 0.00 | 0.12 | 0.12 | 53 | 1012.3 |
| 20260903182556 | 93 | 248 | 8.0 | 12.0 | 0.00 | 0.12 | 0.12 | 54 | 1012.4 |
| 20260903181516 | 93 | 248 | 7.0 | 12.0 | 0.00 | 0.12 | 0.12 | 54 | 1012.5 |
| 20260903180536 | 93 | 248 | 9.0 | 13.0 | 0.00 | 0.12 | 0.12 | 54 | 1012.6 |
| 20260903175515 | 93 | 248 | 4.0 | 11.0 | 0.00 | 0.12 | 0.12 | 57 | 1012.7 |
| 20260903174516 | 93 | 248 | 6.0 | 16.0 | 0.00 | 0.12 | 0.12 | 56 | 1012.9 |
| 20260903173515 | 92 | 225 | 10.0 | 14.0 | 0.00 | 0.12 | 0.12 | 57 | 1013.1 |
| 20260903173100 | 92 | 248 | 8.0 | 11.0 | 0.00 | 0.12 | 0.12 | 57 | 1013.1 |
| 20260903172016 | 92 | 248 | 6.0 | 10.0 | 0.00 | 0.12 | 0.12 | 59 | 1013.3 |
| 20260903171016 | 92 | 225 | 9.0 | 14.0 | 0.00 | 0.12 | 0.12 | 59 | 1013.4 |
| 20260903170016 | 91 | 225 | 7.0 | 11.0 | 0.00 | 0.12 | 0.12 | 60 | 1013.5 |
| 20260903165036 | 91 | 248 | 7.0 | 12.0 | 0.00 | 0.12 | 0.12 | 60 | 1013.4 |
| 20260903164016 | 90 | 225 | 8.0 | 11.0 | 0.00 | 0.12 | 0.12 | 62 | 1013.6 |
| 20260903163036 | 90 | 248 | 7.0 | 11.0 | 0.00 | 0.12 | 0.12 | 61 | 1013.7 |
| 20260903162015 | 89 | 158 | 4.0 | 10.0 | 0.00 | 0.12 | 0.12 | 63 | 1013.6 |
| 20260903161016 | 89 | 248 | 4.0 | 7.0 | 0.00 | 0.12 | 0.12 | 64 | 1013.6 |
| 20260903160016 | 88 | 225 | 6.0 | 10.0 | 0.00 | 0.12 | 0.12 | 64 | 1013.7 |
| 20260903155016 | 88 | 248 | 6.0 | 10.0 | 0.00 | 0.12 | 0.12 | 64 | 1013.8 |
| 20260903154016 | 88 | 225 | 3.0 | 9.0 | 0.00 | 0.12 | 0.12 | 66 | 1013.8 |
| 20260903153015 | 87 | 248 | 5.0 | 8.0 | 0.00 | 0.12 | 0.12 | 68 | 1013.7 |
| 20260903152056 | 86 | 225 | 7.0 | 10.0 | 0.12 | 0.12 | 0.12 | 66 | 1013.8 |
| 20260903151015 | 86 | 225 | 6.0 | 10.0 | 0.12 | 0.12 | 0.12 | 69 | 1013.7 |
| 20260903150016 | 85 | 248 | 5.0 | 10.0 | 0.12 | 0.12 | 0.12 | 72 | 1013.8 |
| 20260903145016 | 84 | 225 | 5.0 | 9.0 | 0.12 | 0.12 | 0.12 | 74 | 1013.9 |
| 20260903144016 | 84 | 203 | 5.0 | 8.0 | 0.12 | 0.12 | 0.12 | 74 | 1013.9 |
| 20260903143016 | 84 | 180 | 6.0 | 9.0 | 0.12 | 0.12 | 0.12 | 73 | 1013.9 |
| 20260903142036 | 85 | 203 | 5.0 | 8.0 | 0.00 | 0.00 | 0.00 | 72 | 1014.1 |
| 20260903141016 | 85 | 203 | 5.0 | 8.0 | 0.00 | 0.00 | 0.00 | 72 | 1014.0 |
| 20260903140016 | 84 | 248 | 5.0 | 8.0 | 0.00 | 0.00 | 0.00 | 71 | 1013.8 |
| 20260903135016 | 83 | 248 | 3.0 | 8.0 | 0.00 | 0.00 | 0.00 | 72 | 1013.8 |
| 20260903134016 | 83 | 225 | 3.0 | 6.0 | 0.00 | 0.00 | 0.00 | 74 | 1013.8 |
| 20260903133036 | 82 | 180 | 3.0 | 6.0 | 0.00 | 0.00 | 0.00 | 76 | 1013.9 |
| 20260903132016 | 81 | 248 | 2.0 | 4.0 | 0.00 | 0.00 | 0.00 | 77 | 1014.0 |
| 20260903131016 | 81 | 180 | 2.0 | 4.0 | 0.00 | 0.00 | 0.00 | 78 | 1014.2 |
| 20260903130016 | 80 | 225 | 4.0 | 7.0 | 0.00 | 0.00 | 0.00 | 80 | 1014.1 |
| 20260903125036 | 79 | 315 | 3.0 | 6.0 | 0.00 | 0.00 | 0.00 | 82 | 1014.2 |
| 20260903124016 | 78 | 45 | 3.0 | 6.0 | 0.00 | 0.00 | 0.00 | 83 | 1014.2 |
| 20260903123036 | 78 | 90 | 3.0 | 5.0 | 0.00 | 0.00 | 0.00 | 83 | 1014.2 |
| 20260903122016 | 78 | 135 | 2.0 | 4.0 | 0.00 | 0.00 | 0.00 | 83 | 1014.4 |
| 20260903121016 | 78 | 90 | 1.0 | 3.0 | 0.00 | 0.00 | 0.00 | 83 | 1014.3 |
| 20260903120016 | 78 | 90 | 3.0 | 6.0 | 0.00 | 0.00 | 0.00 | 82 | 1014.2 |
| 20260903115016 | 78 | 68 | 2.0 | 3.0 | 0.00 | 0.00 | 0.00 | 82 | 1014.2 |
| 20260903114016 | 78 | 113 | 2.0 | 5.0 | 0.00 | 0.00 | 0.00 | 81 | 1014.1 |
| 20260903113016 | 78 | 0 | 3.0 | 7.0 | 0.00 | 0.00 | 0.00 | 81 | 1014.3 |
| 20260903112016 | 78 | 45 | 6.0 | 11.0 | 0.00 | 0.00 | 0.00 | 82 | 1013.9 |
| 20260903111016 | 78 | 248 | 4.0 | 7.0 | 0.00 | 0.00 | 0.00 | 81 | 1013.8 |
| 20260903110016 | 78 | 225 | 7.0 | 10.0 | 0.00 | 0.00 | 0.00 | 81 | 1013.2 |
| 20260903105057 | 78 | 225 | 7.0 | 11.0 | 0.00 | 0.00 | 0.00 | 81 | 1013.3 |
| 20260903104016 | 78 | 225 | 8.0 | 13.0 | 0.00 | 0.00 | 0.00 | 82 | 1013.2 |
| 20260903103016 | 78 | 225 | 7.0 | 9.0 | 0.00 | 0.00 | 0.00 | 82 | 1013.4 |
| 20260903102016 | 78 | 225 | 6.0 | 9.0 | 0.00 | 0.00 | 0.00 | 84 | 1013.4 |
| 20260903101016 | 77 | 225 | 4.0 | 8.0 | 0.00 | 0.00 | 0.00 | 86 | 1013.5 |
| 20260903100016 | 76 | 225 | 4.0 | 5.0 | 0.00 | 0.00 | 0.00 | 87 | 1013.3 |
| 20260903095016 | 76 | 225 | 3.0 | 6.0 | 0.00 | 0.00 | 0.00 | 87 | 1013.4 |
| 20260903094036 | 76 | 203 | 3.0 | 5.0 | 0.00 | 0.00 | 0.00 | 87 | 1013.2 |
| 20260903093016 | 76 | 203 | 3.0 | 5.0 | 0.00 | 0.00 | 0.00 | 87 | 1013.3 |
| 20260903092036 | 76 | 203 | 3.0 | 5.0 | 0.00 | 0.00 | 0.00 | 88 | 1013.3 |
| 20260903091016 | 76 | 203 | 3.0 | 4.0 | 0.00 | 0.00 | 0.00 | 88 | 1013.4 |
| 20260903090036 | 76 | 203 | 2.0 | 5.0 | 0.00 | 0.00 | 0.00 | 89 | 1013.2 |
| 20260903085036 | 76 | 203 | 3.0 | 6.0 | 0.00 | 0.00 | 0.00 | 89 | 1013.2 |
| 20260903084036 | 75 | 180 | 2.0 | 4.0 | 0.00 | 0.00 | 0.00 | 89 | 1013.0 |
| 20260903083036 | 75 | 203 | 1.0 | 3.0 | 0.00 | 0.00 | 0.00 | 87 | 1013.1 |
| 20260903082056 | 76 | 0.0 | 0.0 | 0.00 | 0.00 | 0.00 | 87 | 1013.2 | |
| 20260903081016 | 76 | 0.0 | 0.0 | 0.00 | 0.00 | 0.00 | 86 | 1013.4 | |
| 20260903080016 | 76 | 0.0 | 0.0 | 0.00 | 0.00 | 0.00 | 85 | 1013.4 | |
| 20260903075016 | 76 | 0.0 | 0.0 | 0.00 | 0.00 | 0.00 | 84 | 1013.6 | |
| 20260903074016 | 77 | 203 | 1.0 | 3.0 | 0.00 | 0.00 | 0.00 | 83 | 1013.6 |
| 20260903073036 | 78 | 203 | 3.0 | 5.0 | 0.00 | 0.00 | 0.00 | 82 | 1013.5 |
| 20260903072016 | 79 | 113 | 1.0 | 2.0 | 0.00 | 0.00 | 0.00 | 80 | 1013.5 |
| 20260903071036 | 79 | 203 | 1.0 | 3.0 | 0.00 | 0.00 | 0.00 | 80 | 1013.5 |
| 20260903070116 | 80 | 45 | 1.0 | 2.0 | 0.00 | 0.00 | 0.00 | 79 | 1013.8 |
| 20260903065016 | 80 | 248 | 1.0 | 4.0 | 0.00 | 0.00 | 0.00 | 79 | 1013.8 |
| 20260903064016 | 80 | 338 | 4.0 | 8.0 | 0.00 | 0.00 | 0.00 | 79 | 1013.9 |
| 20260903063016 | 80 | 248 | 4.0 | 10.0 | 0.00 | 0.00 | 0.00 | 80 | 1013.8 |
| 20260903062016 | 80 | 23 | 5.0 | 10.0 | 0.00 | 0.00 | 0.00 | 80 | 1014.2 |
| 20260903061016 | 80 | 248 | 6.0 | 8.0 | 0.00 | 0.00 | 0.00 | 79 | 1013.4 |
| 20260903060016 | 80 | 248 | 6.0 | 8.0 | 0.00 | 0.00 | 0.00 | 78 | 1013.4 |
| 20260903055036 | 81 | 248 | 7.0 | 10.0 | 0.00 | 0.00 | 0.00 | 78 | 1013.4 |
| 20260903054116 | 81 | 248 | 7.0 | 13.0 | 0.00 | 0.00 | 0.00 | 78 | 1013.4 |
| 20260903053016 | 81 | 248 | 8.0 | 13.0 | 0.00 | 0.00 | 0.00 | 77 | 1013.4 |
| 20260903052016 | 81 | 225 | 7.0 | 10.0 | 0.00 | 0.00 | 0.00 | 77 | 1013.2 |
| 20260903051016 | 81 | 225 | 8.0 | 11.0 | 0.00 | 0.00 | 0.00 | 77 | 1013.1 |
| 20260903050036 | 81 | 225 | 8.0 | 11.0 | 0.00 | 0.00 | 0.00 | 77 | 1012.9 |
| 20260903045016 | 81 | 225 | 8.0 | 13.0 | 0.00 | 0.00 | 0.00 | 78 | 1012.7 |
| 20260903044016 | 81 | 225 | 8.0 | 11.0 | 0.00 | 0.00 | 0.00 | 77 | 1012.7 |
| 20260903043016 | 81 | 225 | 7.0 | 11.0 | 0.00 | 0.00 | 0.00 | 77 | 1012.6 |
| 20260903042016 | 81 | 225 | 7.0 | 9.0 | 0.00 | 0.00 | 0.00 | 76 | 1012.5 |
| 20260903041016 | 81 | 225 | 8.0 | 12.0 | 0.00 | 0.00 | 0.00 | 76 | 1012.3 |
| 20260903040016 | 81 | 225 | 7.0 | 11.0 | 0.00 | 0.00 | 0.00 | 76 | 1012.4 |
| 20260903035015 | 81 | 225 | 7.0 | 12.0 | 0.00 | 0.00 | 0.00 | 76 | 1012.1 |
| 20260903034035 | 81 | 225 | 7.0 | 9.0 | 0.00 | 0.00 | 0.00 | 75 | 1012.0 |
| 20260903033036 | 82 | 225 | 8.0 | 11.0 | 0.00 | 0.00 | 0.00 | 75 | 1011.9 |
| 20260903032015 | 81 | 203 | 8.0 | 12.0 | 0.00 | 0.00 | 0.00 | 75 | 1012.1 |
| 20260903031016 | 82 | 203 | 7.0 | 10.0 | 0.00 | 0.00 | 0.00 | 74 | 1012.3 |
| 20260903030055 | 82 | 203 | 7.0 | 10.0 | 0.00 | 0.00 | 0.00 | 74 | 1012.6 |
| 20260903025605 | 82 | 225 | 7.0 | 9.0 | 0.00 | 0.00 | 0.00 | 74 | 1012.6 |
| 20260903025016 | 82 | 203 | 7.0 | 9.0 | 0.00 | 0.00 | 0.00 | 74 | 1012.7 |
| 20260903024016 | 82 | 203 | 6.0 | 9.0 | 0.00 | 0.00 | 0.00 | 74 | 1012.8 |
| 20260903023015 | 82 | 203 | 6.0 | 8.0 | 0.00 | 0.00 | 0.00 | 73 | 1012.8 |
| 20260903022016 | 82 | 203 | 6.0 | 9.0 | 0.00 | 0.00 | 0.00 | 73 | 1012.9 |
| 20260903021016 | 82 | 203 | 6.0 | 8.0 | 0.00 | 0.00 | 0.00 | 72 | 1012.9 |
| 20260903020015 | 82 | 203 | 5.0 | 8.0 | 0.00 | 0.00 | 0.00 | 72 | 1012.9 |
| 20260903015036 | 82 | 203 | 5.0 | 8.0 | 0.00 | 0.00 | 0.00 | 72 | 1013.0 |
| 20260903014016 | 82 | 203 | 5.0 | 6.0 | 0.00 | 0.00 | 0.00 | 73 | 1012.9 |
| 20260903013015 | 82 | 203 | 5.0 | 7.0 | 0.00 | 0.00 | 0.00 | 73 | 1012.9 |
| 20260903012036 | 82 | 225 | 4.0 | 6.0 | 0.00 | 0.00 | 0.00 | 74 | 1013.0 |
| 20260903011036 | 82 | 225 | 3.0 | 5.0 | 0.00 | 0.00 | 0.00 | 72 | 1012.8 |
| 20260903010016 | 83 | 203 | 5.0 | 7.0 | 0.00 | 0.00 | 0.00 | 73 | 1012.8 |